• Processing (Info)

  • MPEC 2014-Q31 : 2014 QO33

    The following Minor Planet Electronic Circular may be linked-to from your own Web pages, but must not otherwise be redistributed electronically.

    A form allowing access to any MPEC is at the bottom of this page.


    Read MPEC 2014-Q30 Read MPEC 2014-Q32


    M.P.E.C. 2014-Q31                                Issued 2014 Aug. 23, 23:43 UT
    
         The Minor Planet Electronic Circulars contain information on unusual
             minor planets and routine data on comets.  They are published
       on behalf of Commission 20 of the International Astronomical Union by the
              Minor Planet Center, Smithsonian Astrophysical Observatory,
                              Cambridge, MA 02138, U.S.A.
    
                 Prepared using the Tamkin Foundation Computer Network
    
                                  MPC@CFA.HARVARD.EDU
                URL http://www.minorplanetcenter.net/    ISSN 1523-6714
    
                                       2014 QO33
    
    Observations:
         K14Q33O* C2014 08 21.95363 22 14 00.80 -23 33 18.3          18.3 VrEQ031J75
         K14Q33O  C2014 08 21.95920 22 14 01.32 -23 33 04.2          18.0 VrEQ031J75
         K14Q33O  C2014 08 21.96477 22 14 01.71 -23 32 48.6          18.2 VrEQ031J75
         K14Q33O  C2014 08 21.99115 22 14 03.92 -23 31 38.4          18.2 V EQ031J75
         K14Q33O  C2014 08 21.99514 22 14 04.27 -23 31 27.5          18.1 V EQ031J75
         K14Q33O  C2014 08 21.99914 22 14 04.56 -23 31 17.2          18.3 V EQ031J75
         K14Q33O  C2014 08 22.07129 22 14 10.48 -23 28 00.6          18.2 V EQ031J75
         K14Q33O  C2014 08 22.07414 22 14 10.63 -23 27 52.6          18.3 V EQ031J75
         K14Q33O  C2014 08 22.07698 22 14 10.85 -23 27 44.9          18.3 V EQ031J75
         K14Q33O |C2014 08 22.27260 22 14 30.36 -23 17 58.4          18.9 VuEQ031807
         K14Q33O |C2014 08 22.27557 22 14 30.60 -23 17 50.1          18.8 VuEQ031807
         K14Q33O |C2014 08 22.27854 22 14 30.84 -23 17 41.9          18.7 VuEQ031807
         K14Q33O |C2014 08 22.28151 22 14 31.09 -23 17 33.8          18.7 VuEQ031807
         K14Q33O `C2014 08 22.45851 22 14 53.11 -23 09 17.2          18.4 RqEQ031D90
         K14Q33O `C2014 08 22.46321 22 14 53.55 -23 09 04.6          18.4 RqEQ031D90
         K14Q33O `C2014 08 22.46790 22 14 53.98 -23 08 52.0          18.6 RqEQ031D90
         K14Q33O KC2014 08 22.50813 22 14 57.02 -23 07 06.8          18.5 VqEQ031E23
         K14Q33O KC2014 08 22.51334 22 14 57.47 -23 06 52.7          18.3 VqEQ031E23
         K14Q33O KC2014 08 22.51855 22 14 57.91 -23 06 38.1          18.4 VqEQ031E23
         K14Q33O KC2014 08 22.95745722 15 41.86 -22 47 12.7          18.5 VqEQ031I93
         K14Q33O KC2014 08 22.95824 22 15 42.04 -22 47 09.2          18.4 VqEQ031958
         K14Q33O KC2014 08 22.96259722 15 42.29 -22 46 58.3          18.5 VqEQ031I93
         K14Q33O KC2014 08 22.96692 22 15 42.74 -22 46 45.2          18.3 VqEQ031958
         K14Q33O KC2014 08 22.96944822 15 42.87 -22 46 39.2          18.6 VqEQ031I93
         K14Q33O KC2014 08 22.97585 22 15 43.49 -22 46 20.1          18.4 VqEQ031958
         K14Q33O KC2014 08 22.98381 22 15 44.21 -22 45 57.7          18.5 VqEQ031958
         K14Q33O ]C2014 08 23.46581 22 16 35.22 -22 22 05.0          18.1 VqEQ031Q62
         K14Q33O ]C2014 08 23.46771 22 16 35.39 -22 21 59.9          18.2 VqEQ031Q62
         K14Q33O ]C2014 08 23.48851 22 16 37.19 -22 21 01.4          18.2 VqEQ031Q62
         K14Q33O ]C2014 08 23.48949 22 16 37.27 -22 20 58.8          18.1 VqEQ031Q62
         K14Q33O ]C2014 08 23.50576 22 16 38.67 -22 20 13.1          18.2 VqEQ031Q62
         K14Q33O ]C2014 08 23.50772 22 16 38.83 -22 20 07.6          18.0 VqEQ031Q62
         K14Q33O KC2014 08 23.95268 22 17 23.25 -21 59 36.6                qEQ031104
         K14Q33O KC2014 08 23.95636 22 17 23.52 -21 59 24.9          18.4  qEQ031104
         K14Q33O KC2014 08 23.96005 22 17 23.87 -21 59 14.6          18.9  qEQ031104
    
    Observer details:
    104 San Marcello Pistoiese.  Observer P. Bacci.  Measurers P. Bacci, L. Tesi,
        G. Fagioli.  0.60-m f/4 reflector + CCD.
    807 Cerro Tololo.  Observers T. Linder, R. Holmes.  0.41-m f/11
        Ritchey-Chretien + CCD.
    958 Observatoire de Dax.  Observers P. Dupouy, J. B. de Vanssay.  Measurer
        P. Dupouy.  0.43-m f/2.7 reflector + CCD.
    D90 RAS Observatory, Moorook.  Observer K. Hills.  0.41-m f/9 Ritchey-Chretien
        + CCD.
    E23 Arcadia.  Observer A. Hidas.  0.35-m Schmidt-Cassegrain + CCD.
    I93 St Pardon de Conques.  Observer F. Losse.  0.40-m f/3.7 reflector + CCD.
    J75 OAM Observatory, La Sagra.  Observers S. Sanchez, J. Nomen, M. Hurtado,
        J. A. Jaume, W. K. Y. Yeung, F. Serra, T. Valls, I. Mas.  0.45-m f/2.8
        reflector + CCD.
    Q62 iTelescope Observatory, Siding Spring.  Observer A. J. Evans.  0.50-m
        f/6.8 astrograph + CCD + focal reducer.
    
    Orbital elements:
    2014 QO33                                                Earth MOID = 0.1424 AU
    Epoch 2014 Dec. 9.0 TT = JDT 2457000.5                  MPC
    M  26.03070              (2000.0)            P               Q
    n   0.30478239     Peri.    7.55167     +0.98721470     +0.15614862
    a   2.1868020      Node   343.36168     -0.15146491     +0.85641935
    e   0.4752351      Incl.    6.41906     -0.04965390     +0.49210111
    P   3.23           H   21.3           G   0.15           U   7
    Residuals in seconds of arc
    140821 J75  0.2-  0.6+    140822 807  0.1-  0.1-    140822 958  0.2+  0.4+
    140821 J75  0.6+  0.1-    140822 D90  0.3-  0.1-    140822 958  0.8+  0.5+
    140821 J75  0.3-  0.6+    140822 D90  0.1-  0.1-    140823 Q62  0.1+  0.2+
    140821 J75  0.3+  0.1+    140822 D90  0.0   0.0     140823 Q62  0.1+  0.0
    140821 J75  0.6+  0.2+    140822 E23  0.1-  0.5-    140823 Q62  0.0   0.2+
    140821 J75  0.1+  0.3-    140822 E23  0.1+  0.5-    140823 Q62  0.0   0.0
    140822 J75  0.4+  0.2-    140822 E23  0.2+  0.1-    140823 Q62  0.1+  0.1-
    140822 J75  0.8-  0.1-    140822 I93  0.1-  0.5-    140823 Q62  0.0   0.1-
    140822 J75  1.0-  0.2-    140822 958  0.8+  0.5+    140823 104  0.0   0.5-
    140822 807  0.1-  0.1+    140822 I93  0.2-  0.4-    140823 104  0.6-  0.5+
    140822 807  0.2-  0.1+    140822 958  0.2+  0.3+    140823 104  0.1-  0.0
    140822 807  0.2-  0.1+    140822 I93  0.2-  0.4-
    
    Ephemeris:
    2014 QO33                a,e,i = 2.19, 0.48, 6                   q = 1.1476
    Date    TT    R. A. (2000) Decl.     Delta      r     Elong.  Phase     V
    2014 07 24    21 32 36.5 -34 37 15   0.2831  1.2812   157.0    18.1    20.0
    ...
    2014 08 08    21 52 35.7 -31 12 50   0.2134  1.2190   162.3    14.7    19.2
    ...
    2014 08 16    22 04 24.9 -27 28 42   0.1851  1.1927   165.3    12.4    18.8
    ...
    2014 08 22    22 14 04.2 -23 30 31   0.1681  1.1766   168.1    10.2    18.4
    2014 08 23    22 15 45.2 -22 44 27   0.1656  1.1742   168.7     9.7    18.4
    2014 08 24    22 17 27.6 -21 56 31   0.1633  1.1719   169.2     9.3    18.3
    ...
    2014 08 30    22 28 11.7 -16 31 07   0.1517  1.1604   172.6     6.4    18.0
    ...
    2014 09 07    22 43 49.3 -07 53 44   0.1432  1.1506   175.3     4.1    17.8
    ...
    2014 09 22    23 15 17.4 +08 53 02   0.1503  1.1504   166.3    11.9    18.2
    
    A. U. Tomatic                (C) Copyright 2014 MPC           M.P.E.C. 2014-Q31
    

    Read MPEC 2014-Q30 Read MPEC 2014-Q32


    MPEC number:

    Enter an MPEC number in one of the following forms:

    • 1997-B01 (the full form)
    • J97B01 (the packed version of the full form)
    • B01 (the abbreviated form)